Regional Weather Roundup
Issued by NWS

Home | Current Version | Previous Version | Text Only | Print | Product List | Glossary On
Versions: 1 2 3 4 5 6 7 8 9 10 11 12 13 14 15 16 17 18 19 20 21 22 23 24 25 26 27 28 29 30 31 32 33 34 35 36 37 38 39 40 41 42 43 44 45 46 47 48 49 50
000
ASUS43 KBIS 112220
RWRND

NORTH DAKOTA REGIONAL WEATHER ROUNDUP
NATIONAL WEATHER SERVICE BISMARCK ND
500 PM CDT FRI JUL 11 2014

NOTE: "FAIR" INDICATES FEW OR NO CLOUDS BELOW 12,000 FEET WITH NO
SIGNIFICANT WEATHER AND/OR OBSTRUCTIONS TO VISIBILITY.


NDZ001>003-009>011-017-112300-
NORTHWEST NORTH DAKOTA

CITY           SKY/WX    TMP DP  RH WIND       PRES   REMARKS
WILLISTON      MOSUNNY   80  50  34 NW8G20    30.08S
MINOT          SUNNY     76  54  46 NW14G24   30.03F
MINOT AFB      SUNNY     75  55  49 NW17G24   30.03F
$$

NDZ018>021-031>035-040>046-112300-
SOUTHWEST NORTH DAKOTA

CITY           SKY/WX    TMP DP  RH WIND       PRES   REMARKS
BISMARCK       MOSUNNY   83  49  30 NE12      30.02F
DICKINSON      MOSUNNY   79  58  48 N10       30.07S
GARRISON         N/A     79  60  52 N12       30.05S
HETTINGER ARPT MOSUNNY   80  55  42 NE13      30.09R
$$

NDZ004>008-012>016-024-026-027-054-112300-
NORTHEAST NORTH DAKOTA

CITY           SKY/WX    TMP DP  RH WIND       PRES   REMARKS
GRAND FORKS    SUNNY     84  56  38 NW13      29.92R
GRND FRKS AFB  SUNNY     84  58  41 NW14      29.94S
DEVILS LAKE    SUNNY     79  50  36 NW22G30   29.97R
$$

NDZ022-023-025-028>030-036>039-047>053-112300-
SOUTHEAST NORTH DAKOTA

CITY           SKY/WX    TMP DP  RH WIND       PRES   REMARKS
FARGO          SUNNY     87  65  47 N12       29.92S
JAMESTOWN      SUNNY     83  53  35 N9        29.98F
$$




USA.gov is the U.S. government's official web portal to all federal, state and local government web resources and services.